• In Uzbekistan
  • List of Countries
  • For 7 days
  • Water Temperature
  • Satellite Maps
  • Weather Map
  • Weather Widgets
  • user-avatar
    Login

    Hourly Weather Harper

    Today, 21 November, Wednesday

    Time Temperature Precipitation Wind Pressure Humidity
    00:00 +27°C° 0.2 mm 2 mps 759 mmHg 90%
    01:00 +27°C° 0.2 mm 2 mps 759 mmHg 90%
    02:00 +27°C° 0.2 mm 2 mps 758 mmHg 90%
    03:00 +27°C° 0 mm 2 mps 758 mmHg 90%
    04:00 +27°C° 0 mm 2 mps 758 mmHg 90%
    05:00 +27°C° 0 mm 2 mps 758 mmHg 90%
    06:00 +28°C° 0 mm 2 mps 759 mmHg 86%
    07:00 +29°C° 0 mm 2 mps 759 mmHg 82%
    08:00 +30°C° 0 mm 2 mps 760 mmHg 78%
    09:00 +31°C° 0.2 mm 2 mps 760 mmHg 76%
    10:00 +31°C° 0.2 mm 2 mps 759 mmHg 74%
    11:00 +32°C° 0.2 mm 2 mps 759 mmHg 72%
    12:00 +32°C° 0.3 mm 2 mps 759 mmHg 71%
    13:00 +32°C° 0.3 mm 2 mps 758 mmHg 71%
    14:00 +33°C° 0.3 mm 3 mps 758 mmHg 70%
    15:00 +31°C° 0.2 mm 2 mps 758 mmHg 75%
    16:00 +30°C° 0.2 mm 2 mps 758 mmHg 80%
    17:00 +29°C° 0.2 mm 2 mps 758 mmHg 85%
    18:00 +29°C° 0 mm 2 mps 759 mmHg 86%
    19:00 +28°C° 0 mm 2 mps 759 mmHg 88%
    20:00 +28°C° 0 mm 2 mps 759 mmHg 90%
    21:00 +28°C° 0 mm 2 mps 759 mmHg 90%
    22:00 +28°C° 0 mm 2 mps 759 mmHg 91%
    23:00 +27°C° 0 mm 2 mps 759 mmHg 91%

    Tomorrow, 22 November, Thursday

    Time Temperature Precipitation Wind Pressure Humidity
    00:00 +27°C° 0 mm 2 mps 759 mmHg 92%
    01:00 +27°C° 0 mm 2 mps 758 mmHg 92%
    02:00 +27°C° 0 mm 2 mps 758 mmHg 93%
    03:00 +27°C° 0 mm 2 mps 758 mmHg 92%
    04:00 +27°C° 0 mm 2 mps 758 mmHg 92%
    05:00 +27°C° 0 mm 2 mps 758 mmHg 92%
    06:00 +28°C° 0 mm 2 mps 758 mmHg 87%
    07:00 +29°C° 0 mm 2 mps 759 mmHg 82%
    08:00 +30°C° 0 mm 2 mps 759 mmHg 77%
    09:00 +31°C° 0.3 mm 2 mps 759 mmHg 74%
    10:00 +32°C° 0.3 mm 2 mps 759 mmHg 72%
    11:00 +34°C° 0.3 mm 2 mps 759 mmHg 69%
    12:00 +32°C° 0.9 mm 2 mps 758 mmHg 72%
    13:00 +31°C° 0.9 mm 2 mps 758 mmHg 74%
    14:00 +31°C° 0.9 mm 2 mps 757 mmHg 77%
    15:00 +30°C° 0.5 mm 2 mps 757 mmHg 80%
    16:00 +29°C° 0.5 mm 2 mps 757 mmHg 83%
    17:00 +29°C° 0.5 mm 1 mps 757 mmHg 86%
    18:00 +28°C° 0 mm 1 mps 758 mmHg 87%
    19:00 +28°C° 0 mm 1 mps 758 mmHg 88%
    20:00 +28°C° 0 mm 1 mps 759 mmHg 89%
    21:00 +28°C° 0 mm 1 mps 758 mmHg 90%
    22:00 +27°C° 0 mm 1 mps 758 mmHg 90%
    23:00 +27°C° 0 mm 1 mps 758 mmHg 91%

    Day after tomorrow, 23 November, Friday

    Time Temperature Precipitation Wind Pressure Humidity
    00:00 +27°C° 0 mm 1 mps 758 mmHg 91%
    01:00 +27°C° 0 mm 1 mps 758 mmHg 92%
    02:00 +27°C° 0 mm 1 mps 757 mmHg 93%
    03:00 +27°C° 0 mm 1 mps 757 mmHg 93%
    04:00 +27°C° 0 mm 1 mps 758 mmHg 93%
    05:00 +26°C° 0 mm 1 mps 758 mmHg 93%
    06:00 +28°C° 0 mm 1 mps 758 mmHg 88%
    07:00 +29°C° 0 mm 1 mps 759 mmHg 83%
    08:00 +30°C° 0 mm 1 mps 760 mmHg 78%
    09:00 +31°C° 0.1 mm 1 mps 759 mmHg 74%
    10:00 +32°C° 0.1 mm 2 mps 759 mmHg 69%
    11:00 +34°C° 0.1 mm 2 mps 758 mmHg 65%
    12:00 +34°C° 0.1 mm 2 mps 758 mmHg 66%
    13:00 +34°C° 0.1 mm 2 mps 757 mmHg 66%
    14:00 +32°C° 0.1 mm 2 mps 756 mmHg 67%
    15:00 +31°C° 0 mm 2 mps 756 mmHg 71%
    16:00 +31°C° 0 mm 2 mps 756 mmHg 75%
    17:00 +30°C° 0 mm 2 mps 756 mmHg 80%
    18:00 +29°C° 0 mm 1 mps 757 mmHg 82%
    19:00 +28°C° 0 mm 1 mps 758 mmHg 84%
    20:00 +28°C° 0 mm 1 mps 758 mmHg 87%
    21:00 +28°C° 0 mm 1 mps 758 mmHg 87%
    22:00 +28°C° 0 mm 1 mps 758 mmHg 88%
    23:00 +27°C° 0 mm 1 mps 758 mmHg 89%

    24 November, Saturday

    Time Temperature Precipitation Wind Pressure Humidity
    00:00 +27°C° 0 mm 1 mps 758 mmHg 89%
    01:00 +27°C° 0 mm 1 mps 757 mmHg 90%
    02:00 +27°C° 0 mm 1 mps 757 mmHg 90%
    03:00 +27°C° 0 mm 1 mps 757 mmHg 91%
    04:00 +27°C° 0 mm 1 mps 757 mmHg 91%
    05:00 +24°C° 0 mm 0 mps 758 mmHg 92%
    06:00 +26°C° 0 mm 0 mps 758 mmHg 84%
    07:00 +28°C° 0 mm 0 mps 759 mmHg 77%
    08:00 +29°C° 0 mm 0 mps 760 mmHg 70%
    09:00 +32°C° 0 mm 1 mps 759 mmHg 65%
    10:00 +33°C° 0 mm 1 mps 759 mmHg 61%
    11:00 +34°C° 0 mm 1 mps 759 mmHg 56%
    12:00 +35°C° 0.1 mm 2 mps 758 mmHg 57%
    13:00 +34°C° 0.1 mm 2 mps 757 mmHg 59%
    14:00 +34°C° 0.1 mm 2 mps 756 mmHg 60%
    15:00 +32°C° 0 mm 2 mps 757 mmHg 65%
    16:00 +31°C° 0 mm 2 mps 757 mmHg 70%
    17:00 +30°C° 0 mm 2 mps 757 mmHg 75%
    18:00 +29°C° 0 mm 2 mps 757 mmHg 77%
    19:00 +29°C° 0 mm 2 mps 758 mmHg 79%
    20:00 +28°C° 0 mm 2 mps 759 mmHg 82%
    21:00 +28°C° 0 mm 2 mps 759 mmHg 83%
    22:00 +28°C° 0 mm 2 mps 758 mmHg 84%
    23:00 +27°C° 0 mm 2 mps 758 mmHg 85%

    25 November, Sunday

    Time Temperature Precipitation Wind Pressure Humidity
    00:00 +27°C° 0 mm 2 mps 758 mmHg 86%
    01:00 +27°C° 0 mm 2 mps 757 mmHg 86%
    02:00 +27°C° 0 mm 2 mps 757 mmHg 87%
    03:00 +27°C° 0 mm 1 mps 757 mmHg 88%
    04:00 +27°C° 0 mm 1 mps 758 mmHg 88%
    05:00 +27°C° 0 mm 1 mps 758 mmHg 89%
    06:00 +28°C° 0 mm 1 mps 758 mmHg 83%
    07:00 +29°C° 0 mm 1 mps 759 mmHg 76%
    08:00 +31°C° 0 mm 2 mps 759 mmHg 70%
    09:00 +31°C° 0 mm 2 mps 759 mmHg 68%
    10:00 +32°C° 0 mm 2 mps 758 mmHg 66%
    11:00 +32°C° 0 mm 2 mps 758 mmHg 64%
    12:00 +32°C° 0.1 mm 2 mps 757 mmHg 65%
    13:00 +33°C° 0.1 mm 3 mps 757 mmHg 66%
    14:00 +33°C° 0.1 mm 3 mps 756 mmHg 67%
    15:00 +31°C° 0.1 mm 3 mps 756 mmHg 71%
    16:00 +30°C° 0.1 mm 3 mps 756 mmHg 75%
    17:00 +29°C° 0.1 mm 3 mps 756 mmHg 79%
    18:00 +29°C° 0 mm 2 mps 757 mmHg 81%
    19:00 +28°C° 0 mm 2 mps 758 mmHg 83%
    20:00 +28°C° 0 mm 2 mps 758 mmHg 85%
    21:00 +28°C° 0 mm 2 mps 758 mmHg 86%
    22:00 +28°C° 0 mm 2 mps 758 mmHg 87%
    23:00 +27°C° 0 mm 2 mps 757 mmHg 88%

    26 November, Monday

    Time Temperature Precipitation Wind Pressure Humidity
    00:00 +27°C° 0.2 mm 2 mps 757 mmHg 89%
    01:00 +27°C° 0.2 mm 2 mps 756 mmHg 90%
    02:00 +27°C° 0.2 mm 1 mps 756 mmHg 91%
    03:00 +27°C° 0.1 mm 1 mps 756 mmHg 91%
    04:00 +27°C° 0.1 mm 2 mps 757 mmHg 91%
    05:00 +27°C° 0.1 mm 2 mps 757 mmHg 91%
    06:00 +28°C° 0 mm 2 mps 757 mmHg 86%
    07:00 +29°C° 0 mm 2 mps 758 mmHg 80%
    08:00 +30°C° 0 mm 2 mps 758 mmHg 75%
    09:00 +31°C° 0.4 mm 2 mps 757 mmHg 73%
    10:00 +33°C° 0.4 mm 3 mps 757 mmHg 71%
    11:00 +33°C° 0.4 mm 3 mps 757 mmHg 70%
    12:00 +33°C° 1.4 mm 3 mps 756 mmHg 72%
    13:00 +31°C° 1.4 mm 3 mps 756 mmHg 75%
    14:00 +31°C° 1.4 mm 3 mps 755 mmHg 77%
    15:00 +30°C° 0.8 mm 3 mps 755 mmHg 80%
    16:00 +29°C° 0.8 mm 2 mps 756 mmHg 83%
    17:00 +28°C° 0.8 mm 2 mps 756 mmHg 86%
    18:00 +28°C° 0.1 mm 2 mps 756 mmHg 88%
    19:00 +28°C° 0.1 mm 2 mps 757 mmHg 89%
    20:00 +27°C° 0.1 mm 2 mps 757 mmHg 90%
    21:00 +27°C° 0.4 mm 1 mps 757 mmHg 90%
    22:00 +27°C° 0.4 mm 1 mps 757 mmHg 91%
    23:00 +27°C° 0.4 mm 1 mps 757 mmHg 92%
    Show more